2024-153D

Last updated on Sun Sep 29 2024 00:02:03 GMT+0000 (Coordinated Universal Time)

1 60748U 24153D 24272.61170882 .00025238 00000+0 15044-2 0 9995 2 60748 97.6216 29.9972 0016649 184.0139 176.0960 15.11041756 4596
UTC large
Height (km)
Speed (km/s)
/
Latitude / Longitude
Inclination (degrees)
Orbital Period (minutes)
Azimuth
Elevation
Range (km)
Doppler Factor

Next 0 passes for location: London (51.5072 / 0.1276)

Sorry there are no passes over London.